Regional Weather Roundup
Issued by NWS

Home | Current Version | Previous Version | Graphics & Text | Print | Product List | Glossary On
Versions: 1 2 3 4 5 6 7 8 9 10 11 12 13 14 15 16 17 18 19 20 21 22 23 24 25 26 27 28 29 30 31 32 33 34 35 36 37 38 39 40 41 42 43 44 45 46 47 48 49 50
815
ASUS43 KBIS 250102
RWRND

NORTH DAKOTA REGIONAL WEATHER ROUNDUP
NATIONAL WEATHER SERVICE BISMARCK ND
800 PM CDT WED MAY 24 2017

NOTE: "FAIR" INDICATES FEW OR NO CLOUDS BELOW 12,000 FEET WITH NO
SIGNIFICANT WEATHER AND/OR OBSTRUCTIONS TO VISIBILITY.


NDZ001>003-009>011-017-250200-
NORTHWEST NORTH DAKOTA

CITY           SKY/WX    TMP DP  RH WIND       PRES   REMARKS
WILLISTON      LGT RAIN  60  56  86 NW6       29.34R FOG
MINOT          PTSUNNY   69  36  29 S18G35    29.37R
MINOT AFB      PTSUNNY   68  37  31 S24G30    29.40R
$$

NDZ018>021-031>035-040>046-250200-
SOUTHWEST NORTH DAKOTA

CITY           SKY/WX    TMP DP  RH WIND       PRES   REMARKS
BISMARCK       FAIR      68  40  35 S18G28    29.42F
DICKINSON      PTSUNNY   67  36  31 S20       29.33R
GARRISON         N/A     64  40  41 S23G30    29.37S
HETTINGER ARPT MOSUNNY   69  38  32 SE20G32   29.33F
$$

NDZ004>008-012>016-024-026-027-054-250200-
NORTHEAST NORTH DAKOTA

CITY           SKY/WX    TMP DP  RH WIND       PRES   REMARKS
GRAND FORKS    PTCLDY    66  42  41 S20G25    29.59F
GRND FRKS AFB  MOSUNNY   63  41  44 S15G24    29.59F
DEVILS LAKE    FAIR      60  44  55 SE21G28   29.53S
$$

NDZ022-023-025-028>030-036>039-047>053-250200-
SOUTHEAST NORTH DAKOTA

CITY           SKY/WX    TMP DP  RH WIND       PRES   REMARKS
FARGO          CLOUDY    62  42  47 S15G29    29.63R
JAMESTOWN      FAIR      61  44  53 SE20G28   29.53F
$$





USA.gov is the U.S. government's official web portal to all federal, state and local government web resources and services.